パンスターズ彗星

435P/PanSTARRS (2000)

English version
Home page
Updated on November 14, 2021

---------------------------------------------------------------------

・ プロフィール

・ 軌道要素

                    Epoch = 2000 Aug.  4.0 TT
     T = 2000 July 25.45740 TT        Peri. = 244.59401
     e = 0.3095096                    Node  =  98.82438 2000.0
     q = 2.0927127 AU                 Incl. =  18.88557
       a =  3.0307629 AU   n = 0.18679969   P =   5.28 years

・ 光度変化

        m1 = 17.0 + 5 logΔ + 8.0 log r

---------------------------------------------------------------------

軌道要素は、CBET 5056に掲載されたものです。
光度グラフはComet for Windowsで作成したものです。

---------------------------------------------------------------------

Copyright(C) Seiichi Yoshida (comet@aerith.net). All rights reserved.